Preview of NWS' New Version of Forecast
This preview is not operational and should not be used for support decisions.

Regional Weather Roundup (RWR)

Issued by National Weather Service (NWS)

                            
000
ASUS44 KMEG 211310
RWRTN 
TENNESSEE HOURLY STATE WEATHER ROUNDUP
NATIONAL WEATHER SERVICE MEMPHIS TN
800 AM CDT SAT SEP 21 2019

TNZ002-004-019-021-049-052-054-088>092-211400-
WEST TENNESSEE
  
CITY           SKY/WX    TMP DP  RH WIND       PRES   REMARKS
MEMPHIS INTL   FAIR      73  59  61 S8        30.22R                  
NWS MEMPHIS      N/A     70 N/A N/A MISG        N/A                   
JACKSON        FAIR      69  61  75 S3        30.25R                  
DYERSBURG      FAIR      70  64  81 S5        30.24R                  
SOMERVILLE     SUNNY     70  59  68 S7        30.22R                  
UNION CITY     SUNNY     70  64  83 S6        30.22R                  
BOLIVAR        SUNNY     66  61  82 SE3       30.23R                  
PARIS          SUNNY     70  61  73 S8        30.25R                  
HUNTINGDON     SUNNY     70  61  73 S5        30.25R                  
LEXINGTON      SUNNY     63  63 100 CALM      30.25R                  
SELMER         SUNNY     70  57  64 SE6       30.24S                  
SAVANNAH       SUNNY     68  59  73 S5        30.25R                  
$$

TNZ008-025-027-028-033-062-065-066-211400-
NORTH MIDDLE TENNESSEE
  
CITY           SKY/WX    TMP DP  RH WIND       PRES   REMARKS
NASHVILLE      FAIR      71  57  61 S7        30.29R                  
DICKSON        SUNNY     72  55  56 S10       30.27R                  
PORTLAND       SUNNY     70  61  73 S7        30.28R                  
CLARKSVILLE    FAIR      69  61  75 CALM      30.27R                  
LEBANON        SUNNY     70  61  73 CALM      30.27S                  
SMYRNA         FAIR      68  60  75 SE5       30.30R                  
MURFREESBORO   SUNNY     70  57  64 SE5       30.28R                  
LIVINGSTON     SUNNY     70  54  56 SW5       30.32R                  
CROSSVILLE     FAIR      66  52  60 VRB6      30.37R                  
ROCKWOOD       SUNNY     68  55  64 VRB5      30.35R                  
$$

TNZ061-075-076-078-094-096-097-211400-
SOUTH MIDDLE TENNESSEE
  
CITY           SKY/WX    TMP DP  RH WIND       PRES   REMARKS
LAWRENCEBURG   SUNNY     66  57  72 CALM      30.29R                  
LEWISBURG      SUNNY     63  59  88 CALM      30.29R                  
FAYETTEVILLE   SUNNY     68  55  64 CALM      30.30R                  
TULLAHOMA      SUNNY     66  55  68 SE5       30.30S                  
WINCHESTER     SUNNY     70  55  60 E6        30.31R                  
MCMINNVILLE    SUNNY     68  59  73 CALM      30.31S                  
COLUMBIA       SUNNY     66  63  88 CALM      30.27R                  
SHELBYVILLE    SUNNY     68  57  68 SE5       30.30R                  
$$

TNZ017-018-042-046-047-211400-
NORTHEAST TENNESSEE
  
CITY           SKY/WX    TMP DP  RH WIND       PRES   REMARKS
TRI CITIES     FAIR      64  61  90 CALM      30.37R                  
ELIZABETHTON   PTSUNNY   64  61  88 E3        30.37R                  
GREENEVILLE    SUNNY     68  61  77 CALM      30.36R                  
$$

TNZ012-013-036-069-073-074-211400-
CENTRAL EAST TENNESSEE
  
CITY           SKY/WX    TMP DP  RH WIND       PRES   REMARKS
KNOXVILLE      FAIR      69  61  75 CALM      30.33R                  
OAK RIDGE      FAIR      68  60  75 CALM      30.35R                  
DOWNTOWN KNOXV SUNNY     66  66 100 CALM      30.34S                  
GATLINBURG     MOSUNNY   68  63  83 CALM      30.34S                  
MORRISTOWN     SUNNY     68  63  83 CALM      30.34S                  
JACKSBORO      SUNNY     64  63  94 CALM      30.37R                  
$$

TNZ083-085-099-211400-
SOUTHEAST TENNESSEE
  
CITY           SKY/WX    TMP DP  RH WIND       PRES   REMARKS
CHATTANOOGA    FAIR      65  59  81 CALM      30.34R                  
$$

SKY/WX REPORTED AS FAIR MEANS FEW OR NO CLOUDS BELOW
12 THOUSAND FEET.